(518346) = 2017 CG32

Discovered at Mount Lemmon on 2007-03-25 by Mt. Lemmon Survey.

Orbit

Orbit type: Main Belt

Note: WebGL enabled browser required.

epoch2023-02-25.0
epoch JD2460000.5
perihelion date2018-05-24.66749
perihelion JD2458263.16749
argument of perihelion (°)145.31868
ascending node (°)76.10882
inclination (°)16.04850
eccentricity0.0977370
perihelion distance (AU)2.8176082
Tisserand w.r.t. Jupiter3.1
ΔV w.r.t. Earth (km/sec)11.6
semimajor axis (AU)3.1228237
mean anomaly (°)310.28844
mean daily motion (°/day)0.17860050
aphelion distance (AU)3.428
period (years)5.52
P-vector [x]-0.72826662
P-vector [y]-0.67452843
P-vector [z]-0.12099222
Q-vector [x]0.63056128
Q-vector [y]-0.59043484
Q-vector [z]-0.50376499
absolute magnitude15.97
phase slope0.15
uncertainty0
referenceMPO 745323
observations used177
oppositions10
arc length (days)6302
first opposition used2006
last opposition used2023
residual rms (arc-secs)0.77
perturbers coarse indicatorM-v
perturbers precise indicator003Ek
first observation date used2006-01-23.0
last observation date used2023-04-26.0
computer nameMPCLINUX
JD of orbit computation2458230.098950
perihelion JD uncertainty (days)1.5510E-04
argument of perihelion uncertainty (°)2.8333E-05
ascending node uncertainty (°)1.5055E-05
inclination uncertainty (°)3.9979E-06
eccentricity uncertainty 4.7929E-08
perihelion distance uncertainty (AU)1.5953E-07
Minimum Orbit Intersection Distances (in AU)
for orbit epoch: 2460000.5, reference: E2023-HL2
Mercury2.36876
Venus2.10044
Earth1.82114
Mars1.28581
Jupiter1.62779
Saturn5.6994
Uranus15.5586
Neptune26.4724

Observations

179 total observations over interval: 2006 01 23.32829 – 2023 04 26.213173
These data are available for download (format description).

Date (UT) J2000 RA J2000 Dec Magn Location Ref
2006 01 23.32829 08 52 31.22 +35 51 22.3 20.4 V G96 – Mt. Lemmon Survey MPS 823982
2006 01 23.33030 08 52 31.08 +35 51 23.2 20.3 V G96 – Mt. Lemmon Survey MPS 823982
2006 01 23.33230 08 52 31.00 +35 51 23.9 20.1 V G96 – Mt. Lemmon Survey MPS 823982
2006 01 23.33431 08 52 30.86 +35 51 24.7 20.3 V G96 – Mt. Lemmon Survey MPS 823982
2007 03 25.42339 15 07 17.22 -00 37 12.5 20.7 V G96 – Mt. Lemmon Survey MPS 823982
2007 03 25.42995 15 07 17.07 -00 37 11.9 20.7 V G96 – Mt. Lemmon Survey MPS 823982
2007 03 25.43642 15 07 17.00 -00 37 10.9 20.1 V G96 – Mt. Lemmon Survey MPS 823982
2007 03 25.44290 15 07 16.82 -00 37 10.3 20.4 V G96 – Mt. Lemmon Survey MPS 823982
2007 04 24.33072 14 49 04.65 +00 10 56.5 20.1 V G96 – Mt. Lemmon Survey MPS 823982
2007 04 24.34089 14 49 04.11 +00 10 56.9 20.2 V G96 – Mt. Lemmon Survey MPS 823982
2007 04 24.35111 14 49 03.57 +00 10 57.2 20.1 V G96 – Mt. Lemmon Survey MPS 823982
2007 04 24.36125 14 49 03.07 +00 10 57.3 20.5 V G96 – Mt. Lemmon Survey MPS 823982
2007 05 22.26734 14 25 44.11 -00 28 56.7 20.7 V G96 – Mt. Lemmon Survey MPS 823982
2007 05 22.27366 14 25 43.82 -00 28 57.7 20.6 V G96 – Mt. Lemmon Survey MPS 823982
2007 05 22.28000 14 25 43.53 -00 28 59.4 20.6 V G96 – Mt. Lemmon Survey MPS 823982
2007 05 22.28642 14 25 43.24 -00 29 01.0 20.4 V G96 – Mt. Lemmon Survey MPS 823982
2012 03 14.31689 11 46 56.860 +27 33 47.86 20.2 r F51 – Pan-STARRS 1, Haleakala MPS 823982
2012 03 14.32808 11 46 56.277 +27 33 50.61 20.2 r F51 – Pan-STARRS 1, Haleakala MPS 823982
2012 03 14.33989 11 46 55.693 +27 33 53.79 20.8 g F51 – Pan-STARRS 1, Haleakala MPS 823982
2012 03 14.35164 11 46 55.085 +27 33 56.55 20.9 g F51 – Pan-STARRS 1, Haleakala MPS 823982
2012 03 31.17532 11 33 17.60 +28 06 10.5 20.2 V G96 – Mt. Lemmon Survey MPS 823982
2012 03 31.18215 11 33 17.31 +28 06 10.6 20.2 V G96 – Mt. Lemmon Survey MPS 823982
2012 03 31.18910 11 33 16.99 +28 06 10.7 20.0 V G96 – Mt. Lemmon Survey MPS 823982
2012 03 31.19600 11 33 16.74 +28 06 10.8 20.1 V G96 – Mt. Lemmon Survey MPS 823982
2012 04 10.25266 11 26 43.476 +27 50 42.29 20.4 r F51 – Pan-STARRS 1, Haleakala MPS 823982
2012 04 10.26426 11 26 43.077 +27 50 40.66 20.4 r F51 – Pan-STARRS 1, Haleakala MPS 823982
2012 04 10.27684 11 26 42.614 +27 50 38.52 20.7 g F51 – Pan-STARRS 1, Haleakala MPS 823982
2012 04 10.28916 11 26 42.198 +27 50 36.78 20.8 g F51 – Pan-STARRS 1, Haleakala MPS 823982
2014 08 03.58535 00 20 41.290 -20 51 05.70 21.2 w F51 – Pan-STARRS 1, Haleakala MPS 823982
2014 08 03.59517 00 20 41.184 -20 51 09.30 21.0 w F51 – Pan-STARRS 1, Haleakala MPS 823982
2014 08 03.60499 00 20 41.092 -20 51 13.19 20.9 w F51 – Pan-STARRS 1, Haleakala MPS 823982
2014 08 25.49630 00 12 45.973 -23 18 19.95 21.1 w F51 – Pan-STARRS 1, Haleakala MPS 823982
2014 08 25.50689 00 12 45.604 -23 18 24.12 21.0 w F51 – Pan-STARRS 1, Haleakala MPS 823982
2014 08 25.51748 00 12 45.206 -23 18 28.43 20.9 w F51 – Pan-STARRS 1, Haleakala MPS 823982
2014 08 25.52807 00 12 44.830 -23 18 32.66 21.0 w F51 – Pan-STARRS 1, Haleakala MPS 823982
2015 10 08.47389 04 07 43.580 +11 22 30.20 21.5 w F51 – Pan-STARRS 1, Haleakala MPS 823982
2015 10 08.48602 04 07 43.360 +11 22 29.90 21.6 w F51 – Pan-STARRS 1, Haleakala MPS 823982
2015 10 08.49818 04 07 43.105 +11 22 29.60 21.3 w F51 – Pan-STARRS 1, Haleakala MPS 823982
2015 10 08.51032 04 07 42.872 +11 22 29.69 21.7 w F51 – Pan-STARRS 1, Haleakala MPS 823982
2015 11 12.28645 03 45 51.27 +11 12 28.3 20.5 V 691 – Steward Observatory, Kitt Peak-Spacewatch MPS 823982
2015 11 12.30620 03 45 50.24 +11 12 27.8 20.7 V 691 – Steward Observatory, Kitt Peak-Spacewatch MPS 823982
2015 11 12.32597 03 45 49.20 +11 12 28.2 20.8 V 691 – Steward Observatory, Kitt Peak-Spacewatch MPS 823982
2015 11 18.34145 03 40 35.610 +11 13 27.99 20.6 r F51 – Pan-STARRS 1, Haleakala MPS 823982
2015 11 18.35306 03 40 34.995 +11 13 28.26 20.5 r F51 – Pan-STARRS 1, Haleakala MPS 823982
2015 11 18.36478 03 40 34.371 +11 13 28.50 20.5 r F51 – Pan-STARRS 1, Haleakala MPS 823982
2015 11 18.37675 03 40 33.726 +11 13 28.53 20.5 r F51 – Pan-STARRS 1, Haleakala MPS 823982
2015 12 03.31020 03 27 48.147 +11 24 05.79 20.9 w F51 – Pan-STARRS 1, Haleakala MPS 823982
2015 12 03.32119 03 27 47.596 +11 24 06.67 20.9 w F51 – Pan-STARRS 1, Haleakala MPS 823982
2015 12 03.33218 03 27 47.058 +11 24 07.46 21.2 w F51 – Pan-STARRS 1, Haleakala MPS 823982
2016 01 03.31086 03 10 28.919 +12 35 09.27 21.4 w F51 – Pan-STARRS 1, Haleakala MPS 823982
2016 01 03.32503 03 10 28.698 +12 35 12.21 21.8 w F51 – Pan-STARRS 1, Haleakala MPS 823982
2016 01 03.33885 03 10 28.472 +12 35 15.03 21.6 w F51 – Pan-STARRS 1, Haleakala MPS 823982
2016 01 03.35279 03 10 28.248 +12 35 17.74 21.8 w F51 – Pan-STARRS 1, Haleakala MPS 823982
2016 01 31.26632 03 11 37.856 +14 35 00.07 21.7 w F51 – Pan-STARRS 1, Haleakala MPS 823982
2016 01 31.27910 03 11 38.082 +14 35 03.67 21.7 w F51 – Pan-STARRS 1, Haleakala MPS 823982
2016 01 31.29199 03 11 38.333 +14 35 07.89 21.8 w F51 – Pan-STARRS 1, Haleakala MPS 823982
2016 12 08.44559 08 58 45.89 +30 32 00.9 21.4 V G96 – Mt. Lemmon Survey MPS 819294
2016 12 08.44987 08 58 45.92 +30 32 02.6 20.9 V G96 – Mt. Lemmon Survey MPS 819294
2016 12 08.45415 08 58 45.91 +30 32 04.3 22.2 V G96 – Mt. Lemmon Survey MPS 819294
2016 12 08.45844 08 58 45.87 +30 32 06.4 21.4 V G96 – Mt. Lemmon Survey MPS 819294
2017 01 02.45311 08 50 14.515 +33 42 49.39 20.5 w F51 – Pan-STARRS 1, Haleakala MPS 819294
2017 01 02.46476 08 50 14.044 +33 42 55.07 20.5 w F51 – Pan-STARRS 1, Haleakala MPS 819294
2017 01 02.47645 08 50 13.568 +33 43 00.72 20.4 w F51 – Pan-STARRS 1, Haleakala MPS 819294
2017 01 02.48818 08 50 13.089 +33 43 06.42 20.5 w F51 – Pan-STARRS 1, Haleakala MPS 819294
2017 02 01.32158 08 24 22.26 +37 01 13.5 20.4 V G96 – Mt. Lemmon Survey MPS 819294
2017 02 01.32592 08 24 22.00 +37 01 14.3 20.4 V G96 – Mt. Lemmon Survey MPS 819294
2017 02 01.33024 08 24 21.76 +37 01 15.4 19.8 V G96 – Mt. Lemmon Survey MPS 819294
2017 02 01.33452 08 24 21.51 +37 01 16.5 20.2 V G96 – Mt. Lemmon Survey MPS 819294
2017 02 01.37659 08 24 19.259 +37 01 28.53 20.2 w F51 – Pan-STARRS 1, Haleakala MPS 819294
2017 02 01.38778 08 24 18.630 +37 01 31.32 20.3 w F51 – Pan-STARRS 1, Haleakala MPS 819294
2017 02 01.39895 08 24 17.961 +37 01 34.53 20.3 w F51 – Pan-STARRS 1, Haleakala MPS 819294
2017 02 15.20086 08 12 18.97 +37 43 40.5 20.1 V V03 – Big Water MPS 767418
2017 02 15.20806 08 12 18.60 +37 43 41.2   V03 – Big Water MPS 767418
2017 02 15.21601 08 12 18.23 +37 43 42.1 20.5 V V03 – Big Water MPS 767418
2017 02 15.22320 08 12 17.87 +37 43 42.3 20.7 V V03 – Big Water MPS 767418
2017 02 16.17575 08 11 34.88 +37 45 14.4 20.9 V V03 – Big Water MPS 767418
2017 02 16.18288 08 11 34.48 +37 45 15.6 21.8 V V03 – Big Water MPS 767418
2017 02 16.19002 08 11 34.21 +37 45 15.6 21.0 V V03 – Big Water MPS 767418
2017 02 16.19791 08 11 33.87 +37 45 16.9 21.3 V V03 – Big Water MPS 767418
2017 02 16.20504 08 11 33.44 +37 45 17.9 21.2 V V03 – Big Water MPS 767418
2017 02 20.13655 08 08 47.53 +37 49 49.9 20.9 V V03 – Big Water MPS 768372
2017 02 20.15766 08 08 46.81 +37 49 50.7 20.4 V V03 – Big Water MPS 768372
2017 02 21.22659 08 08 05.02 +37 50 36.4 20.3 V G96 – Mt. Lemmon Survey MPS 768372
2017 02 21.23248 08 08 04.82 +37 50 36.4 20.5 V G96 – Mt. Lemmon Survey MPS 768372
2017 02 21.23836 08 08 04.59 +37 50 36.2 20.7 V G96 – Mt. Lemmon Survey MPS 768372
2017 02 21.24425 08 08 04.32 +37 50 36.5 20.6 V G96 – Mt. Lemmon Survey MPS 768372
2018 04 14.35889 14 45 06.06 +01 47 14.7 20.4 G G96 – Mt. Lemmon Survey MPS 882235
2018 04 14.36408 14 45 05.80 +01 47 15.3 20.3 G G96 – Mt. Lemmon Survey MPS 882235
2018 04 14.36926 14 45 05.56 +01 47 16.2 20.2 G G96 – Mt. Lemmon Survey MPS 882235
2018 04 14.37445 14 45 05.28 +01 47 15.9 20.3 G G96 – Mt. Lemmon Survey MPS 882235
2018 04 21.34504 14 39 30.39 +01 55 43.1 19.8 G G96 – Mt. Lemmon Survey MPS 887384
2018 04 21.35019 14 39 30.08 +01 55 44.1 19.7 G G96 – Mt. Lemmon Survey MPS 887384
2018 04 21.35534 14 39 29.82 +01 55 43.9 19.7 G G96 – Mt. Lemmon Survey MPS 887384
2018 04 21.36050 14 39 29.55 +01 55 43.5 19.8 G G96 – Mt. Lemmon Survey MPS 887384
2018 04 21.41325 14 39 26.84 +01 55 45.6 19.4 G 703 – Catalina Sky Survey MPS 887384
